Year,Month,Day,Hour,Minute,Value (Times are PST for barometer in hPa)
2012,12,16,00,00,1000.54
2012,12,16,00,01,1000.54
2012,12,16,00,02,1000.54
2012,12,16,00,03,1000.54
2012,12,16,00,04,1000.54
2012,12,16,00,05,1000.54
2012,12,16,00,06,1000.54
2012,12,16,00,07,1000.54
2012,12,16,00,08,1000.54
2012,12,16,00,09,1000.54
2012,12,16,00,10,1000.54
2012,12,16,00,11,1000.54
2012,12,16,00,12,1000.54
2012,12,16,00,13,1000.54
2012,12,16,00,14,1000.54
2012,12,16,00,15,1000.58
2012,12,16,00,16,1000.58
2012,12,16,00,17,1000.58
2012,12,16,00,18,1000.58
2012,12,16,00,19,1000.58
2012,12,16,00,20,1000.58
2012,12,16,00,21,1000.58
2012,12,16,00,22,1000.58
2012,12,16,00,23,1000.58
2012,12,16,00,24,1000.58
2012,12,16,00,25,1000.58
2012,12,16,00,26,1000.58
2012,12,16,00,27,1000.58
2012,12,16,00,28,1000.58
2012,12,16,00,29,1000.58
2012,12,16,00,30,1000.75
2012,12,16,00,31,1000.75
2012,12,16,00,32,1000.75
2012,12,16,00,33,1000.75
2012,12,16,00,34,1000.75
2012,12,16,00,35,1000.75
2012,12,16,00,36,1000.75
2012,12,16,00,37,1000.75
2012,12,16,00,38,1000.75
2012,12,16,00,39,1000.75
2012,12,16,00,40,1000.75
2012,12,16,00,41,1000.75
2012,12,16,00,42,1000.75
2012,12,16,00,43,1000.75
2012,12,16,00,44,1000.75
2012,12,16,00,45,1000.81
2012,12,16,00,46,1000.81
2012,12,16,00,47,1000.81
2012,12,16,00,48,1000.81
2012,12,16,00,49,1000.81
2012,12,16,00,50,1000.81
2012,12,16,00,51,1000.81
2012,12,16,00,52,1000.81
2012,12,16,00,53,1000.81
2012,12,16,00,54,1000.81
2012,12,16,00,55,1000.81
2012,12,16,00,56,1000.81
2012,12,16,00,57,1000.81
2012,12,16,00,58,1000.81
2012,12,16,00,59,1000.81
2012,12,16,01,00,1000.95
2012,12,16,01,01,1000.95
2012,12,16,01,02,1000.95
2012,12,16,01,03,1000.95
2012,12,16,01,04,1000.95
2012,12,16,01,05,1000.95
2012,12,16,01,06,1000.95
2012,12,16,01,07,1000.95
2012,12,16,01,08,1000.95
2012,12,16,01,09,1000.95
2012,12,16,01,10,1000.95
2012,12,16,01,11,1000.95
2012,12,16,01,12,1000.95
2012,12,16,01,13,1000.95
2012,12,16,01,14,1000.95
2012,12,16,01,15,1001.08
2012,12,16,01,16,1001.08
2012,12,16,01,17,1001.08
2012,12,16,01,18,1001.08
2012,12,16,01,19,1001.08
2012,12,16,01,20,1001.08
2012,12,16,01,21,1001.08
2012,12,16,01,22,1001.08
2012,12,16,01,23,1001.08
2012,12,16,01,24,1001.08
2012,12,16,01,25,1001.08
2012,12,16,01,26,1001.08
2012,12,16,01,27,1001.08
2012,12,16,01,28,1001.08
2012,12,16,01,29,1001.08
2012,12,16,01,30,1001.22
2012,12,16,01,31,1001.22
2012,12,16,01,32,1001.22
2012,12,16,01,33,1001.22
2012,12,16,01,34,1001.22
2012,12,16,01,35,1001.22
2012,12,16,01,36,1001.22
2012,12,16,01,37,1001.22
2012,12,16,01,38,1001.22
2012,12,16,01,39,1001.22
2012,12,16,01,40,1001.22
2012,12,16,01,41,1001.22
2012,12,16,01,42,1001.22
2012,12,16,01,43,1001.22
2012,12,16,01,44,1001.22
2012,12,16,01,45,1001.63
2012,12,16,01,46,1001.63
2012,12,16,01,47,1001.63
2012,12,16,01,48,1001.63
2012,12,16,01,49,1001.63
2012,12,16,01,50,1001.63
2012,12,16,01,51,1001.63
2012,12,16,01,52,1001.63
2012,12,16,01,53,1001.63
2012,12,16,01,54,1001.63
2012,12,16,01,55,1001.63
2012,12,16,01,56,1001.63
2012,12,16,01,57,1001.63
2012,12,16,01,58,1001.63
2012,12,16,01,59,1001.63
2012,12,16,02,00,1001.59
2012,12,16,02,01,1001.59
2012,12,16,02,02,1001.59
2012,12,16,02,03,1001.59
2012,12,16,02,04,1001.59
2012,12,16,02,05,1001.59
2012,12,16,02,06,1001.59
2012,12,16,02,07,1001.59
2012,12,16,02,08,1001.59
2012,12,16,02,09,1001.59
2012,12,16,02,10,1001.59
2012,12,16,02,11,1001.59
2012,12,16,02,12,1001.59
2012,12,16,02,13,1001.59
2012,12,16,02,14,1001.59
2012,12,16,02,15,1001.66
2012,12,16,02,16,1001.66
2012,12,16,02,17,1001.66
2012,12,16,02,18,1001.66
2012,12,16,02,19,1001.66
2012,12,16,02,20,1001.66
2012,12,16,02,21,1001.66
2012,12,16,02,22,1001.66
2012,12,16,02,23,1001.66
2012,12,16,02,24,1001.66
2012,12,16,02,25,1001.66
2012,12,16,02,26,1001.66
2012,12,16,02,27,1001.66
2012,12,16,02,28,1001.66
2012,12,16,02,29,1001.66
2012,12,16,02,30,1002.13
2012,12,16,02,31,1002.13
2012,12,16,02,32,1002.13
2012,12,16,02,33,1002.13
2012,12,16,02,34,1002.13
2012,12,16,02,35,1002.13
2012,12,16,02,36,1002.13
2012,12,16,02,37,1002.13
2012,12,16,02,38,1002.13
2012,12,16,02,39,1002.13
2012,12,16,02,40,1002.13
2012,12,16,02,41,1002.13
2012,12,16,02,42,1002.13
2012,12,16,02,43,1002.13
2012,12,16,02,44,1002.13
2012,12,16,02,45,1002.24
2012,12,16,02,46,1002.24
2012,12,16,02,47,1002.24
2012,12,16,02,48,1002.24
2012,12,16,02,49,1002.24
2012,12,16,02,50,1002.24
2012,12,16,02,51,1002.24
2012,12,16,02,52,1002.24
2012,12,16,02,53,1002.24
2012,12,16,02,54,1002.24
2012,12,16,02,55,1002.24
2012,12,16,02,56,1002.24
2012,12,16,02,57,1002.24
2012,12,16,02,58,1002.24
2012,12,16,02,59,1002.24
2012,12,16,03,00,1002.17
2012,12,16,03,01,1002.17
2012,12,16,03,02,1002.17
2012,12,16,03,03,1002.17
2012,12,16,03,04,1002.17
2012,12,16,03,05,1002.17
2012,12,16,03,06,1002.17
2012,12,16,03,07,1002.17
2012,12,16,03,08,1002.17
2012,12,16,03,09,1002.17
2012,12,16,03,10,1002.17
2012,12,16,03,11,1002.17
2012,12,16,03,12,1002.17
2012,12,16,03,13,1002.17
2012,12,16,03,14,1002.17
2012,12,16,03,15,1002.07
2012,12,16,03,16,1002.07
2012,12,16,03,17,1002.07
2012,12,16,03,18,1002.07
2012,12,16,03,19,1002.07
2012,12,16,03,20,1002.07
2012,12,16,03,21,1002.07
2012,12,16,03,22,1002.07
2012,12,16,03,23,1002.07
2012,12,16,03,24,1002.07
2012,12,16,03,25,1002.07
2012,12,16,03,26,1002.07
2012,12,16,03,27,1002.07
2012,12,16,03,28,1002.07
2012,12,16,03,29,1002.07
2012,12,16,03,30,1001.73
2012,12,16,03,31,1001.73
2012,12,16,03,32,1001.73
2012,12,16,03,33,1001.73
2012,12,16,03,34,1001.73
2012,12,16,03,35,1001.73
2012,12,16,03,36,1001.73
2012,12,16,03,37,1001.73
2012,12,16,03,38,1001.73
2012,12,16,03,39,1001.73
2012,12,16,03,40,1001.73
2012,12,16,03,41,1001.73
2012,12,16,03,42,1001.73
2012,12,16,03,43,1001.73
2012,12,16,03,44,1001.73
2012,12,16,03,45,1001.86
2012,12,16,03,46,1001.86
2012,12,16,03,47,1001.86
2012,12,16,03,48,1001.86
2012,12,16,03,49,1001.86
2012,12,16,03,50,1001.86
2012,12,16,03,51,1001.86
2012,12,16,03,52,1001.86
2012,12,16,03,53,1001.86
2012,12,16,03,54,1001.86
2012,12,16,03,55,1001.86
2012,12,16,03,56,1001.86
2012,12,16,03,57,1001.86
2012,12,16,03,58,1001.86
2012,12,16,03,59,1001.86
2012,12,16,04,00,1002.10
2012,12,16,04,01,1002.10
2012,12,16,04,02,1002.10
2012,12,16,04,03,1002.10
2012,12,16,04,04,1002.10
2012,12,16,04,05,1002.10
2012,12,16,04,06,1002.10
2012,12,16,04,07,1002.10
2012,12,16,04,08,1002.10
2012,12,16,04,09,1002.10
2012,12,16,04,10,1002.10
2012,12,16,04,11,1002.10
2012,12,16,04,12,1002.10
2012,12,16,04,13,1002.10
2012,12,16,04,14,1002.10
2012,12,16,04,15,1002.10
2012,12,16,04,16,1002.10
2012,12,16,04,17,1002.10
2012,12,16,04,18,1002.10
2012,12,16,04,19,1002.10
2012,12,16,04,20,1002.10
2012,12,16,04,21,1002.10
2012,12,16,04,22,1002.10
2012,12,16,04,23,1002.10
2012,12,16,04,24,1002.10
2012,12,16,04,25,1002.10
2012,12,16,04,26,1002.10
2012,12,16,04,27,1002.10
2012,12,16,04,28,1002.10
2012,12,16,04,29,1002.10
2012,12,16,04,30,1002.20
2012,12,16,04,31,1002.20
2012,12,16,04,32,1002.20
2012,12,16,04,33,1002.20
2012,12,16,04,34,1002.20
2012,12,16,04,35,1002.20
2012,12,16,04,36,1002.20
2012,12,16,04,37,1002.20
2012,12,16,04,38,1002.20
2012,12,16,04,39,1002.20
2012,12,16,04,40,1002.20
2012,12,16,04,41,1002.20
2012,12,16,04,42,1002.20
2012,12,16,04,43,1002.20
2012,12,16,04,44,1002.20
2012,12,16,04,45,1002.24
2012,12,16,04,46,1002.24
2012,12,16,04,47,1002.24
2012,12,16,04,48,1002.24
2012,12,16,04,49,1002.24
2012,12,16,04,50,1002.24
2012,12,16,04,51,1002.24
2012,12,16,04,52,1002.24
2012,12,16,04,53,1002.24
2012,12,16,04,54,1002.24
2012,12,16,04,55,1002.24
2012,12,16,04,56,1002.24
2012,12,16,04,57,1002.24
2012,12,16,04,58,1002.24
2012,12,16,04,59,1002.24
2012,12,16,05,00,1002.24
2012,12,16,05,01,1002.24
2012,12,16,05,02,1002.24
2012,12,16,05,03,1002.24
2012,12,16,05,04,1002.24
2012,12,16,05,05,1002.24
2012,12,16,05,06,1002.24
2012,12,16,05,07,1002.24
2012,12,16,05,08,1002.24
2012,12,16,05,09,1002.24
2012,12,16,05,10,1002.24
2012,12,16,05,11,1002.24
2012,12,16,05,12,1002.24
2012,12,16,05,13,1002.24
2012,12,16,05,14,1002.24
2012,12,16,05,15,1002.13
2012,12,16,05,16,1002.13
2012,12,16,05,17,1002.13
2012,12,16,05,18,1002.13
2012,12,16,05,19,1002.13
2012,12,16,05,20,1002.13
2012,12,16,05,21,1002.13
2012,12,16,05,22,1002.13
2012,12,16,05,23,1002.13
2012,12,16,05,24,1002.13
2012,12,16,05,25,1002.13
2012,12,16,05,26,1002.13
2012,12,16,05,27,1002.13
2012,12,16,05,28,1002.13
2012,12,16,05,29,1002.13
2012,12,16,05,30,1002.20
2012,12,16,05,31,1002.20
2012,12,16,05,32,1002.20
2012,12,16,05,33,1002.20
2012,12,16,05,34,1002.20
2012,12,16,05,35,1002.20
2012,12,16,05,36,1002.20
2012,12,16,05,37,1002.20
2012,12,16,05,38,1002.20
2012,12,16,05,39,1002.20
2012,12,16,05,40,1002.20
2012,12,16,05,41,1002.20
2012,12,16,05,42,1002.20
2012,12,16,05,43,1002.20
2012,12,16,05,44,1002.20
2012,12,16,05,45,1002.20
2012,12,16,05,46,1002.20
2012,12,16,05,47,1002.20
2012,12,16,05,48,1002.20
2012,12,16,05,49,1002.20
2012,12,16,05,50,1002.20
2012,12,16,05,51,1002.20
2012,12,16,05,52,1002.20
2012,12,16,05,53,1002.20
2012,12,16,05,54,1002.20
2012,12,16,05,55,1002.20
2012,12,16,05,56,1002.20
2012,12,16,05,57,1002.20
2012,12,16,05,58,1002.20
2012,12,16,05,59,1002.20
2012,12,16,06,00,1002.30
2012,12,16,06,01,1002.30
2012,12,16,06,02,1002.30
2012,12,16,06,03,1002.30
2012,12,16,06,04,1002.30
2012,12,16,06,05,1002.30
2012,12,16,06,06,1002.30
2012,12,16,06,07,1002.30
2012,12,16,06,08,1002.30
2012,12,16,06,09,1002.30
2012,12,16,06,10,1002.30
2012,12,16,06,11,1002.30
2012,12,16,06,12,1002.30
2012,12,16,06,13,1002.30
2012,12,16,06,14,1002.30
2012,12,16,06,15,1002.20
2012,12,16,06,16,1002.20
2012,12,16,06,17,1002.20
2012,12,16,06,18,1002.20
2012,12,16,06,19,1002.20
2012,12,16,06,20,1002.20
2012,12,16,06,21,1002.20
2012,12,16,06,22,1002.20
2012,12,16,06,23,1002.20
2012,12,16,06,24,1002.20
2012,12,16,06,25,1002.20
2012,12,16,06,26,1002.20
2012,12,16,06,27,1002.20
2012,12,16,06,28,1002.20
2012,12,16,06,29,1002.20
2012,12,16,06,30,1002.20
2012,12,16,06,31,1002.20
2012,12,16,06,32,1002.20
2012,12,16,06,33,1002.20
2012,12,16,06,34,1002.20
2012,12,16,06,35,1002.20
2012,12,16,06,36,1002.20
2012,12,16,06,37,1002.20
2012,12,16,06,38,1002.20
2012,12,16,06,39,1002.20
2012,12,16,06,40,1002.20
2012,12,16,06,41,1002.20
2012,12,16,06,42,1002.20
2012,12,16,06,43,1002.20
2012,12,16,06,44,1002.20
2012,12,16,06,45,1002.20
2012,12,16,06,46,1002.20
2012,12,16,06,47,1002.20
2012,12,16,06,48,1002.20
2012,12,16,06,49,1002.20
2012,12,16,06,50,1002.20
2012,12,16,06,51,1002.20
2012,12,16,06,52,1002.20
2012,12,16,06,53,1002.20
2012,12,16,06,54,1002.20
2012,12,16,06,55,1002.20
2012,12,16,06,56,1002.20
2012,12,16,06,57,1002.20
2012,12,16,06,58,1002.20
2012,12,16,06,59,1002.20
2012,12,16,07,00,1002.27
2012,12,16,07,01,1002.27
2012,12,16,07,02,1002.27
2012,12,16,07,03,1002.27
2012,12,16,07,04,1002.27
2012,12,16,07,05,1002.27
2012,12,16,07,06,1002.27
2012,12,16,07,07,1002.27
2012,12,16,07,08,1002.27
2012,12,16,07,09,1002.27
2012,12,16,07,10,1002.27
2012,12,16,07,11,1002.27
2012,12,16,07,12,1002.27
2012,12,16,07,13,1002.27
2012,12,16,07,14,1002.27
2012,12,16,07,15,1002.24
2012,12,16,07,16,1002.24
2012,12,16,07,17,1002.24
2012,12,16,07,18,1002.24
2012,12,16,07,19,1002.24
2012,12,16,07,20,1002.24
2012,12,16,07,21,1002.24
2012,12,16,07,22,1002.24
2012,12,16,07,23,1002.24
2012,12,16,07,24,1002.24
2012,12,16,07,25,1002.24
2012,12,16,07,26,1002.24
2012,12,16,07,27,1002.24
2012,12,16,07,28,1002.24
2012,12,16,07,29,1002.24
2012,12,16,07,30,1002.24
2012,12,16,07,31,1002.24
2012,12,16,07,32,1002.24
2012,12,16,07,33,1002.24
2012,12,16,07,34,1002.24
2012,12,16,07,35,1002.24
2012,12,16,07,36,1002.24
2012,12,16,07,37,1002.24
2012,12,16,07,38,1002.24
2012,12,16,07,39,1002.24
2012,12,16,07,40,1002.24
2012,12,16,07,41,1002.24
2012,12,16,07,42,1002.24
2012,12,16,07,43,1002.24
2012,12,16,07,44,1002.24
2012,12,16,07,45,1002.24
2012,12,16,07,46,1002.24
2012,12,16,07,47,1002.24
2012,12,16,07,48,1002.24
2012,12,16,07,49,1002.24
2012,12,16,07,50,1002.24
2012,12,16,07,51,1002.24
2012,12,16,07,52,1002.24
2012,12,16,07,53,1002.24
2012,12,16,07,54,1002.24
2012,12,16,07,55,1002.24
2012,12,16,07,56,1002.24
2012,12,16,07,57,1002.24
2012,12,16,07,58,1002.24
2012,12,16,07,59,1002.24
2012,12,16,08,00,1002.27
2012,12,16,08,01,1002.27
2012,12,16,08,02,1002.27
2012,12,16,08,03,1002.27
2012,12,16,08,04,1002.27
2012,12,16,08,05,1002.27
2012,12,16,08,06,1002.27
2012,12,16,08,07,1002.27
2012,12,16,08,08,1002.27
2012,12,16,08,09,1002.27
2012,12,16,08,10,1002.27
2012,12,16,08,11,1002.27
2012,12,16,08,12,1002.27
2012,12,16,08,13,1002.27
2012,12,16,08,14,1002.27
2012,12,16,08,15,1002.24
2012,12,16,08,16,1002.24
2012,12,16,08,17,1002.24
2012,12,16,08,18,1002.24
2012,12,16,08,19,1002.24
2012,12,16,08,20,1002.24
2012,12,16,08,21,1002.24
2012,12,16,08,22,1002.24
2012,12,16,08,23,1002.24
2012,12,16,08,24,1002.24
2012,12,16,08,25,1002.24
2012,12,16,08,26,1002.24
2012,12,16,08,27,1002.24
2012,12,16,08,28,1002.24
2012,12,16,08,29,1002.24
2012,12,16,08,30,1002.24
2012,12,16,08,31,1002.24
2012,12,16,08,32,1002.24
2012,12,16,08,33,1002.24
2012,12,16,08,34,1002.24
2012,12,16,08,35,1002.24
2012,12,16,08,36,1002.24
2012,12,16,08,37,1002.24
2012,12,16,08,38,1002.24
2012,12,16,08,39,1002.24
2012,12,16,08,40,1002.24
2012,12,16,08,41,1002.24
2012,12,16,08,42,1002.24
2012,12,16,08,43,1002.24
2012,12,16,08,44,1002.24
2012,12,16,08,45,1002.00
2012,12,16,08,46,1002.00
2012,12,16,08,47,1002.00
2012,12,16,08,48,1002.00
2012,12,16,08,49,1002.00
2012,12,16,08,50,1002.00
2012,12,16,08,51,1002.00
2012,12,16,08,52,1002.00
2012,12,16,08,53,1002.00
2012,12,16,08,54,1002.00
2012,12,16,08,55,1002.00
2012,12,16,08,56,1002.00
2012,12,16,08,57,1002.00
2012,12,16,08,58,1002.00
2012,12,16,08,59,1002.00
2012,12,16,09,00,1001.69
2012,12,16,09,01,1001.69
2012,12,16,09,02,1001.69
2012,12,16,09,03,1001.69
2012,12,16,09,04,1001.69
2012,12,16,09,05,1001.69
2012,12,16,09,06,1001.69
2012,12,16,09,07,1001.69
2012,12,16,09,08,1001.69
2012,12,16,09,09,1001.69
2012,12,16,09,10,1001.69
2012,12,16,09,11,1001.69
2012,12,16,09,12,1001.69
2012,12,16,09,13,1001.69
2012,12,16,09,14,1001.69
2012,12,16,09,15,1001.49
2012,12,16,09,16,1001.49
2012,12,16,09,17,1001.49
2012,12,16,09,18,1001.49
2012,12,16,09,19,1001.49
2012,12,16,09,20,1001.49
2012,12,16,09,21,1001.49
2012,12,16,09,22,1001.49
2012,12,16,09,23,1001.49
2012,12,16,09,24,1001.49
2012,12,16,09,25,1001.49
2012,12,16,09,26,1001.49
2012,12,16,09,27,1001.49
2012,12,16,09,28,1001.49
2012,12,16,09,29,1001.49
2012,12,16,09,30,1001.26
2012,12,16,09,31,1001.25
2012,12,16,09,32,1001.25
2012,12,16,09,33,1001.25
2012,12,16,09,34,1001.25
2012,12,16,09,35,1001.25
2012,12,16,09,36,1001.25
2012,12,16,09,37,1001.25
2012,12,16,09,38,1001.25
2012,12,16,09,39,1001.25
2012,12,16,09,40,1001.25
2012,12,16,09,41,1001.25
2012,12,16,09,42,1001.25
2012,12,16,09,43,1001.25
2012,12,16,09,44,1001.25
2012,12,16,09,45,1000.51
2012,12,16,09,46,1000.51
2012,12,16,09,47,1000.51
2012,12,16,09,48,1000.51
2012,12,16,09,49,1000.51
2012,12,16,09,50,1000.51
2012,12,16,09,51,1000.51
2012,12,16,09,52,1000.51
2012,12,16,09,53,1000.51
2012,12,16,09,54,1000.51
2012,12,16,09,55,1000.51
2012,12,16,09,56,1000.51
2012,12,16,09,57,1000.51
2012,12,16,09,58,1000.51
2012,12,16,09,59,1000.51
2012,12,16,10,00,1000.68
2012,12,16,10,01,1000.68
2012,12,16,10,02,1000.68
2012,12,16,10,03,1000.68
2012,12,16,10,04,1000.68
2012,12,16,10,05,1000.68
2012,12,16,10,06,1000.68
2012,12,16,10,07,1000.68
2012,12,16,10,08,1000.68
2012,12,16,10,09,1000.68
2012,12,16,10,10,1000.68
2012,12,16,10,11,1000.68
2012,12,16,10,12,1000.68
2012,12,16,10,13,1000.68
2012,12,16,10,14,1000.68
2012,12,16,10,15,1001.15
2012,12,16,10,16,1001.15
2012,12,16,10,17,1001.15
2012,12,16,10,18,1001.15
2012,12,16,10,19,1001.15
2012,12,16,10,20,1001.15
2012,12,16,10,21,1001.15
2012,12,16,10,22,1001.15
2012,12,16,10,23,1001.15
2012,12,16,10,24,1001.15
2012,12,16,10,25,1001.15
2012,12,16,10,26,1001.15
2012,12,16,10,27,1001.15
2012,12,16,10,28,1001.15
2012,12,16,10,29,1001.15
2012,12,16,10,30,1001.03
2012,12,16,10,31,1001.02
2012,12,16,10,32,1001.02
2012,12,16,10,33,1001.02
2012,12,16,10,34,1001.02
2012,12,16,10,35,1001.02
2012,12,16,10,36,1001.02
2012,12,16,10,37,1001.02
2012,12,16,10,38,1001.02
2012,12,16,10,39,1001.02
2012,12,16,10,40,1001.02
2012,12,16,10,41,1001.02
2012,12,16,10,42,1001.02
2012,12,16,10,43,1001.02
2012,12,16,10,44,1001.02
2012,12,16,10,45,1000.68
2012,12,16,10,46,1000.68
2012,12,16,10,47,1000.68
2012,12,16,10,48,1000.68
2012,12,16,10,49,1000.68
2012,12,16,10,50,1000.68
2012,12,16,10,51,1000.68
2012,12,16,10,52,1000.68
2012,12,16,10,53,1000.68
2012,12,16,10,54,1000.68
2012,12,16,10,55,1000.68
2012,12,16,10,56,1000.68
2012,12,16,10,57,1000.68
2012,12,16,10,58,1000.68
2012,12,16,10,59,1000.68
2012,12,16,11,00,1000.17
2012,12,16,11,01,1000.17
2012,12,16,11,02,1000.17
2012,12,16,11,03,1000.17
2012,12,16,11,04,1000.17
2012,12,16,11,05,1000.17
2012,12,16,11,06,1000.17
2012,12,16,11,07,1000.17
2012,12,16,11,08,1000.17
2012,12,16,11,09,1000.17
2012,12,16,11,10,1000.17
2012,12,16,11,11,1000.17
2012,12,16,11,12,1000.17
2012,12,16,11,13,1000.17
2012,12,16,11,14,1000.17
2012,12,16,11,15,999.93
2012,12,16,11,16,999.93
2012,12,16,11,17,999.93
2012,12,16,11,18,999.93
2012,12,16,11,19,999.93
2012,12,16,11,20,999.93
2012,12,16,11,21,999.93
2012,12,16,11,22,999.93
2012,12,16,11,23,999.93
2012,12,16,11,24,999.93
2012,12,16,11,25,999.93
2012,12,16,11,26,999.93
2012,12,16,11,27,999.93
2012,12,16,11,28,999.93
2012,12,16,11,29,999.93
2012,12,16,11,30,999.55
2012,12,16,11,31,999.53
2012,12,16,11,32,999.53
2012,12,16,11,33,999.53
2012,12,16,11,34,999.53
2012,12,16,11,35,999.53
2012,12,16,11,36,999.53
2012,12,16,11,37,999.53
2012,12,16,11,38,999.53
2012,12,16,11,39,999.53
2012,12,16,11,40,999.53
2012,12,16,11,41,999.53
2012,12,16,11,42,999.53
2012,12,16,11,43,999.53
2012,12,16,11,44,999.53
2012,12,16,11,45,999.07
2012,12,16,11,46,999.05
2012,12,16,11,47,999.05
2012,12,16,11,48,999.05
2012,12,16,11,49,999.05
2012,12,16,11,50,999.05
2012,12,16,11,51,999.05
2012,12,16,11,52,999.05
2012,12,16,11,53,999.05
2012,12,16,11,54,999.05
2012,12,16,11,55,999.05
2012,12,16,11,56,999.05
2012,12,16,11,57,999.05
2012,12,16,11,58,999.05
2012,12,16,11,59,999.05
2012,12,16,12,00,998.51
2012,12,16,12,01,998.48
2012,12,16,12,02,998.48
2012,12,16,12,03,998.48
2012,12,16,12,04,998.48
2012,12,16,12,05,998.48
2012,12,16,12,06,998.48
2012,12,16,12,07,998.48
2012,12,16,12,08,998.48
2012,12,16,12,09,998.48
2012,12,16,12,10,998.48
2012,12,16,12,11,998.48
2012,12,16,12,12,998.48
2012,12,16,12,13,998.48
2012,12,16,12,14,998.48
2012,12,16,12,15,997.99
2012,12,16,12,16,997.97
2012,12,16,12,17,997.97
2012,12,16,12,18,997.97
2012,12,16,12,19,997.97
2012,12,16,12,20,997.97
2012,12,16,12,21,997.97
2012,12,16,12,22,997.97
2012,12,16,12,23,997.97
2012,12,16,12,24,997.97
2012,12,16,12,25,997.97
2012,12,16,12,26,997.97
2012,12,16,12,27,997.97
2012,12,16,12,28,997.97
2012,12,16,12,29,997.97
2012,12,16,12,30,997.19
2012,12,16,12,31,997.19
2012,12,16,12,32,997.19
2012,12,16,12,33,997.19
2012,12,16,12,34,997.19
2012,12,16,12,35,997.19
2012,12,16,12,36,997.19
2012,12,16,12,37,997.19
2012,12,16,12,38,997.19
2012,12,16,12,39,997.19
2012,12,16,12,40,997.19
2012,12,16,12,41,997.19
2012,12,16,12,42,997.19
2012,12,16,12,43,997.19
2012,12,16,12,44,997.19
2012,12,16,12,45,996.42
2012,12,16,12,46,996.38
2012,12,16,12,47,996.38
2012,12,16,12,48,996.38
2012,12,16,12,49,996.38
2012,12,16,12,50,996.38
2012,12,16,12,51,996.38
2012,12,16,12,52,996.38
2012,12,16,12,53,996.38
2012,12,16,12,54,996.38
2012,12,16,12,55,996.38
2012,12,16,12,56,996.38
2012,12,16,12,57,996.38
2012,12,16,12,58,996.38
2012,12,16,12,59,996.38
2012,12,16,13,00,995.83
2012,12,16,13,01,995.80
2012,12,16,13,02,995.80
2012,12,16,13,03,995.80
2012,12,16,13,04,995.80
2012,12,16,13,05,995.80
2012,12,16,13,06,995.80
2012,12,16,13,07,995.80
2012,12,16,13,08,995.80
2012,12,16,13,09,995.80
2012,12,16,13,10,995.80
2012,12,16,13,11,995.80
2012,12,16,13,12,995.80
2012,12,16,13,13,995.80
2012,12,16,13,14,995.80
2012,12,16,13,15,995.40
2012,12,16,13,16,995.40
2012,12,16,13,17,995.40
2012,12,16,13,18,995.40
2012,12,16,13,19,995.40
2012,12,16,13,20,995.40
2012,12,16,13,21,995.40
2012,12,16,13,22,995.40
2012,12,16,13,23,995.40
2012,12,16,13,24,995.40
2012,12,16,13,25,995.40
2012,12,16,13,26,995.40
2012,12,16,13,27,995.40
2012,12,16,13,28,995.40
2012,12,16,13,29,995.40
2012,12,16,13,30,994.82
2012,12,16,13,31,994.79
2012,12,16,13,32,994.79
2012,12,16,13,33,994.79
2012,12,16,13,34,994.79
2012,12,16,13,35,994.79
2012,12,16,13,36,994.79
2012,12,16,13,37,994.79
2012,12,16,13,38,994.79
2012,12,16,13,39,994.79
2012,12,16,13,40,994.79
2012,12,16,13,41,994.79
2012,12,16,13,42,994.79
2012,12,16,13,43,994.79
2012,12,16,13,44,994.79
2012,12,16,13,45,993.95
2012,12,16,13,46,993.91
2012,12,16,13,47,993.91
2012,12,16,13,48,993.91
2012,12,16,13,49,993.91
2012,12,16,13,50,993.91
2012,12,16,13,51,993.91
2012,12,16,13,52,993.91
2012,12,16,13,53,993.91
2012,12,16,13,54,993.91
2012,12,16,13,55,993.91
2012,12,16,13,56,993.91
2012,12,16,13,57,993.91
2012,12,16,13,58,993.91
2012,12,16,13,59,993.91
2012,12,16,14,00,993.36
2012,12,16,14,01,993.36
2012,12,16,14,02,993.36
2012,12,16,14,03,993.36
2012,12,16,14,04,993.36
2012,12,16,14,05,993.36
2012,12,16,14,06,993.36
2012,12,16,14,07,993.36
2012,12,16,14,08,993.36
2012,12,16,14,09,993.36
2012,12,16,14,10,993.36
2012,12,16,14,11,993.36
2012,12,16,14,12,993.36
2012,12,16,14,13,993.36
2012,12,16,14,14,993.36
2012,12,16,14,15,992.88
2012,12,16,14,16,992.86
2012,12,16,14,17,992.86
2012,12,16,14,18,992.86
2012,12,16,14,19,992.86
2012,12,16,14,20,992.86
2012,12,16,14,21,992.86
2012,12,16,14,22,992.86
2012,12,16,14,23,992.86
2012,12,16,14,24,992.86
2012,12,16,14,25,992.86
2012,12,16,14,26,992.86
2012,12,16,14,27,992.86
2012,12,16,14,28,992.86
2012,12,16,14,29,992.86
2012,12,16,14,30,992.02
2012,12,16,14,31,991.98
2012,12,16,14,32,991.98
2012,12,16,14,33,991.98
2012,12,16,14,34,991.98
2012,12,16,14,35,991.98
2012,12,16,14,36,991.98
2012,12,16,14,37,991.98
2012,12,16,14,38,991.98
2012,12,16,14,39,991.98
2012,12,16,14,40,991.98
2012,12,16,14,41,991.98
2012,12,16,14,42,991.98
2012,12,16,14,43,991.98
2012,12,16,14,44,991.98
2012,12,16,14,45,991.57
2012,12,16,14,46,991.57
2012,12,16,14,47,991.57
2012,12,16,14,48,991.57
2012,12,16,14,49,991.57
2012,12,16,14,50,991.57
2012,12,16,14,51,991.57
2012,12,16,14,52,991.57
2012,12,16,14,53,991.57
2012,12,16,14,54,991.57
2012,12,16,14,55,991.57
2012,12,16,14,56,991.57
2012,12,16,14,57,991.57
2012,12,16,14,58,991.57
2012,12,16,14,59,991.57
2012,12,16,15,00,991.16
2012,12,16,15,01,991.16
2012,12,16,15,02,991.16
2012,12,16,15,03,991.16
2012,12,16,15,04,991.16
2012,12,16,15,05,991.16
2012,12,16,15,06,991.16
2012,12,16,15,07,991.16
2012,12,16,15,08,991.16
2012,12,16,15,09,991.16
2012,12,16,15,10,991.16
2012,12,16,15,11,991.16
2012,12,16,15,12,991.16
2012,12,16,15,13,991.16
2012,12,16,15,14,991.16
2012,12,16,15,15,990.76
2012,12,16,15,16,990.76
2012,12,16,15,17,990.76
2012,12,16,15,18,990.76
2012,12,16,15,19,990.76
2012,12,16,15,20,990.76
2012,12,16,15,21,990.76
2012,12,16,15,22,990.76
2012,12,16,15,23,990.76
2012,12,16,15,24,990.76
2012,12,16,15,25,990.76
2012,12,16,15,26,990.76
2012,12,16,15,27,990.76
2012,12,16,15,28,990.76
2012,12,16,15,29,990.76
2012,12,16,15,30,989.84
2012,12,16,15,31,989.84
2012,12,16,15,32,989.84
2012,12,16,15,33,989.84
2012,12,16,15,34,989.84
2012,12,16,15,35,989.84
2012,12,16,15,36,989.84
2012,12,16,15,37,989.84
2012,12,16,15,38,989.84
2012,12,16,15,39,989.84
2012,12,16,15,40,989.84
2012,12,16,15,41,989.84
2012,12,16,15,42,989.84
2012,12,16,15,43,989.84
2012,12,16,15,44,989.84
2012,12,16,15,45,988.81
2012,12,16,15,46,988.76
2012,12,16,15,47,988.76
2012,12,16,15,48,988.76
2012,12,16,15,49,988.76
2012,12,16,15,50,988.76
2012,12,16,15,51,988.76
2012,12,16,15,52,988.76
2012,12,16,15,53,988.76
2012,12,16,15,54,988.76
2012,12,16,15,55,988.76
2012,12,16,15,56,988.76
2012,12,16,15,57,988.76
2012,12,16,15,58,988.76
2012,12,16,15,59,988.76
2012,12,16,16,00,987.78
2012,12,16,16,01,987.78
2012,12,16,16,02,987.78
2012,12,16,16,03,987.78
2012,12,16,16,04,987.78
2012,12,16,16,05,987.78
2012,12,16,16,06,987.78
2012,12,16,16,07,987.78